DW4221 Weather Reports


time (UTC)temp
C
wind
direction
speed
KPH
gust
KPH
rain 1hr
cm
rain 24hr
cm
rain mn
cm
humidity
%
barometer
mb
20260906191605 26 209 3.2 11.3 0.00 0.00 0.00 73 1019.8
20260906190113 26 140 3.2 11.3 0.00 0.00 0.00 68 1020.1
20260906184600 26 0 3.2 12.9 0.00 0.00 0.00 72 1020.3
20260906183108 25 130 3.2 14.5 0.00 0.00 0.00 75 1020.3
20260906181610 25 202 1.6 12.9 0.00 0.00 0.00 77 1020.6
20260906180114 25 254 3.2 14.5 0.00 0.00 0.00 78 1020.8
20260906174554 25 197 1.6 11.3 0.00 0.00 0.00 78 1021.0
20260906173053 25 188 3.2 12.9 0.00 0.00 0.00 77 1021.1
20260906171603 25 106 3.2 17.7 0.00 0.00 0.00 78 1021.3
20260906170126 24 179 4.8 9.7 0.00 0.00 0.00 80 1021.4
20260906164558 23 215 1.6 8.0 0.00 0.00 0.00 81 1021.4
20260906163111 22 170 1.6 11.3 0.00 0.00 0.00 82 1021.5
20260906161611 22 153 3.2 8.0 0.00 0.00 0.00 83 1021.5
20260906160100 21 140 0.0 6.4 0.00 0.00 0.00 84 1021.5
20260906154554 21 0 0.0 9.7 0.00 0.00 0.00 85 1021.5
20260906153104 20 0 0.0 8.0 0.00 0.00 0.00 86 1021.4
20260906151613 19 151 0.0 8.0 0.00 0.00 0.00 86 1021.6
20260906150105 18 132 1.6 6.4 0.00 0.00 0.00 88 1021.7
20260906144552 17 0 0.0 3.2 0.00 0.00 0.00 89 1021.6
20260906143130 17 0 0.0 4.8 0.00 0.00 0.00 88 1021.8
20260906141604 17 0 0.0 9.7 0.00 0.00 0.00 89 1021.7
20260906140056 16 0 0.0 6.4 0.00 0.00 0.00 94 1021.6
20260906134614 15 0 0.0 4.8 0.00 0.00 0.00 96 1021.8
20260906133059 14 0 0.0 4.8 0.00 0.00 0.00 98 1022.0
20260906131601 14 0 0.0 0.0 0.00 0.00 0.00 99 1021.9
20260906130116 13 0 0.0 0.0 0.00 0.00 0.00 99 1021.7
20260906124602 13 0 0.0 0.0 0.00 0.00 0.00 99 1021.6
20260906123135 12 0 0.0 0.0 0.00 0.00 0.00 99 1021.8
20260906121554 12 0 0.0 0.0 0.00 0.00 0.00 99 1021.7
20260906120054 11 0 0.0 0.0 0.00 0.00 0.00 98 1021.5
20260906114606 11 0 0.0 0.0 0.00 0.00 0.00 98 1021.3
20260906113058 11 0 0.0 0.0 0.00 0.00 0.00 98 1021.0
20260906111606 11 0 0.0 0.0 0.00 0.00 0.00 98 1020.8
20260906110106 11 0 0.0 0.0 0.00 0.00 0.00 98 1020.9
20260906104602 11 0 0.0 0.0 0.00 0.00 0.00 98 1020.7
20260906103106 11 0 0.0 0.0 0.00 0.00 0.00 98 1020.7
20260906101553 12 0 0.0 0.0 0.00 0.00 0.00 97 1020.7
20260906100109 12 0 0.0 0.0 0.00 0.00 0.00 97 1020.6
20260906094607 12 0 0.0 0.0 0.00 0.00 0.00 97 1020.4
20260906093056 12 0 0.0 0.0 0.00 0.00 0.00 98 1020.2
20260906091607 12 0 0.0 0.0 0.00 0.00 0.00 97 1020.2
20260906090100 12 0 0.0 0.0 0.00 0.00 0.00 98 1020.4
20260906084606 13 0 0.0 0.0 0.00 0.00 0.00 97 1020.5
20260906083055 13 0 0.0 0.0 0.00 0.00 0.00 97 1020.6
20260906081604 13 0 0.0 0.0 0.00 0.00 0.00 97 1020.9
20260906080103 13 0 0.0 0.0 0.00 0.00 0.00 97 1021.0
20260906074600 13 0 0.0 0.0 0.00 0.00 0.00 98 1021.0
20260906073055 14 0 0.0 0.0 0.00 0.00 0.00 97 1021.1
20260906071602 14 0 0.0 0.0 0.00 0.00 0.00 98 1021.4
20260906070105 14 0 0.0 0.0 0.00 0.00 0.00 97 1021.3
20260906064606 14 0 0.0 0.0 0.00 0.00 0.00 98 1021.4
20260906063106 14 0 0.0 0.0 0.00 0.00 0.00 98 1021.3
20260906061555 14 0 0.0 0.0 0.00 0.00 0.00 97 1021.4
20260906060052 14 0 0.0 0.0 0.00 0.00 0.00 97 1021.3
20260906054557 14 0 0.0 1.6 0.00 0.00 0.00 97 1021.1
20260906053104 15 0 0.0 0.0 0.00 0.00 0.00 97 1021.2
20260906051554 15 0 0.0 1.6 0.00 0.00 0.00 97 1021.2
20260906050104 15 0 0.0 3.2 0.00 0.00 0.00 97 1021.4
20260906044555 14 0 0.0 0.0 0.00 0.00 0.00 97 1021.4
20260906043100 15 0 0.0 0.0 0.00 0.00 0.00 96 1021.4
20260906041557 15 0 0.0 0.0 0.00 0.00 0.00 95 1021.3
20260906040103 15 0 0.0 0.0 0.00 0.00 0.00 95 1021.1
20260906034555 15 0 0.0 0.0 0.00 0.00 0.00 95 1020.8
20260906033116 16 0 0.0 1.6 0.00 0.00 0.00 94 1020.8
20260906031600 16 0 0.0 1.6 0.00 0.00 0.00 93 1020.9
20260906030059 16 0 0.0 1.6 0.00 0.00 0.00 92 1020.5
20260906024608 17 0 0.0 0.0 0.00 0.00 0.00 92 1020.5
20260906023055 17 0 0.0 3.2 0.00 0.00 0.00 92 1020.4
20260906021606 17 128 0.0 3.2 0.00 0.00 0.00 92 1020.3
20260906020109 17 0 0.0 1.6 0.00 0.00 0.00 92 1020.1
20260906014556 18 0 0.0 1.6 0.00 0.00 0.00 91 1019.8
20260906013106 18 0 0.0 6.4 0.00 0.00 0.00 91 1019.4
20260906011602 18 0 0.0 4.8 0.00 0.00 0.00 90 1019.3
20260906010057 19 0 0.0 8.0 0.00 0.00 0.00 89 1019.3
20260906004610 19 158 1.6 9.7 0.00 0.00 0.00 89 1019.1
20260906003057 20 144 0.0 3.2 0.00 0.00 0.00 88 1019.2
20260906001609 20 0 0.0 0.0 0.00 0.00 0.00 87 1019.1
20260906000057 20 0 0.0 8.0 0.00 0.00 0.00 84 1019.1
20260905234557 21 165 1.6 8.0 0.00 0.00 0.00 83 1018.8
20260905233053 21 145 1.6 6.4 0.00 0.00 0.00 83 1018.7
20260905231609 21 0 4.8 11.3 0.00 0.00 0.00 82 1019.1
20260905230105 21 0 1.6 9.7 0.00 0.00 0.00 81 1019.2
20260905224556 21 108 4.8 14.5 0.00 0.00 0.00 81 1019.3
20260905223055 21 111 4.8 11.3 0.00 0.00 0.00 82 1019.4
20260905221604 21 157 3.2 12.9 0.00 0.00 0.00 83 1019.7
20260905220105 21 98 1.6 9.7 0.00 0.00 0.00 83 1019.5
20260905214602 21 163 3.2 12.9 0.00 0.00 0.00 83 1019.9
20260905213053 21 128 3.2 11.3 0.00 0.00 0.00 83 1019.9
20260905211602 21 90 1.6 9.7 0.00 0.00 0.00 83 1020.2
20260905210115 21 0 0.0 6.4 0.00 0.00 0.00 83 1020.6
20260905204606 21 111 1.6 9.7 0.00 0.00 0.00 83 1020.6
20260905203058 21 159 1.6 11.3 0.00 0.00 0.00 84 1020.6
20260905201555 21 120 1.6 9.7 0.00 0.00 0.00 85 1020.6
20260905200054 20 0 3.2 11.3 0.00 0.00 0.00 85 1020.6
20260905194611 21 141 1.6 9.7 0.00 0.00 0.00 85 1020.7
20260905193054 20 100 3.2 9.7 0.00 0.00 0.00 85 1020.9